Regional Weather Roundup
Issued by NWS

Home | Current Version | Previous Version | Text Only | Print | Product List | Glossary On
Versions: 1 2 3 4 5 6 7 8 9 10 11 12 13 14 15 16 17 18 19 20 21 22 23 24 25 26 27 28 29 30 31 32 33 34 35 36 37 38 39 40 41 42 43 44 45 46 47 48 49 50
000
ASUS45 KCYS 031610
RWRWY

WYOMING REGIONAL WEATHER ROUNDUP
NATIONAL WEATHER SERVICE CHEYENNE WY
900 AM MST SAT DEC 03 2016

NOTE:  "FAIR" INDICATES FEW OR NO CLOUDS BELOW 12,000 FEET
WITH NO SIGNIFICANT WEATHER AND/OR OBSTRUCTIONS TO VISIBILITY.

WYZ001-031700-
YELLOWSTONE NATIONAL PARK

CITY           SKY/WX    TMP DP  RH WIND       PRES   REMARKS
LK YELLOWSTONE   N/A     13   9  84 W6        30.06R WCI   4
W YELLOWSTONE  NOT AVBL

$$
WYZ002>013-054>058-071-098>099-031700-
NORTHERN WYOMING

CITY           SKY/WX    TMP DP  RH WIND       PRES   REMARKS
JACKSON        CLOUDY    19  18  93 SW9       30.12S WCI   9
CODY           FAIR      32   9  38 W25G39    29.92S WCI  19
GREYBULL       CLOUDY    26  19  74 VRB3      29.98S
WORLAND        CLOUDY    22  16  78 SW5       29.99R WCI  16
SHERIDAN       FAIR      31  21  66 S6        29.90R WCI  25
BUFFALO        PTSUNNY   33  13  43 NE3       29.89S
GILLETTE       CLOUDY    28  14  55 W9        29.91R WCI  19
HULETT         PTSUNNY   28  18  64 SW10G16   29.90R WCI  19
NEWCASTLE      FAIR      19  14  79 CALM      29.94R

$$
WYZ014>020-022>026-101>103-031700-
CENTRAL WYOMING

CITY           SKY/WX    TMP DP  RH WIND       PRES   REMARKS
BIG PINEY      FAIR      11   7  84 CALM      30.10F
PINEDALE       FAIR      14   9  79 NW6       30.10S WCI   5
DUBOIS         CLOUDY    21   9  58 N14       30.02R WCI   8
LANDER         FAIR      17   7  64 CALM      29.97R
RIVERTON       FAIR      26  10  50 SW12      29.97R WCI  16
CASPER         CLOUDY    25  13  60 SW22G28   29.96R WCI  10
DOUGLAS        CLOUDY    27  14  58 NW7       29.93S WCI  19

$$
WYZ021-027>030-104>119-031700-
SOUTHERN WYOMING

CITY           SKY/WX    TMP DP  RH WIND       PRES   REMARKS
EVANSTON       CLOUDY    15   9  76 SW9       30.18R WCI   3
FORT BRIDGER   PTSUNNY   21  11  65 W10G17    30.18R WCI  10
ROCK SPRINGS   FAIR      20   9  62 W26G35    30.09F WCI   2
DIXON          CLOUDY    13   8  81 CALM      30.18R
RAWLINS        CLOUDY    19   8  62 SW14      30.03R WCI   6
SARATOGA       CLOUDY    21   9  58 CALM      30.08R
LARAMIE        FAIR      20   5  52 SW28G36   29.94R WCI   2
CHEYENNE       FAIR      30   2  30 W21G29    29.97R WCI  17
TORRINGTON     FAIR      28  13  53 W3        29.97R
PINE BLUFFS    FAIR      23  18  80 S6        30.00R WCI  16

$$



USA.gov is the U.S. government's official web portal to all federal, state and local government web resources and services.